Change the Weather History Date:

Monday, December 3, 2012

  Actual Average Record
Temperature  
Mean Temperature 54 °F -  
Max Temperature 66 °F 45 °F 72 °F (1998)
Min Temperature 41 °F 30 °F 12 °F (1976)
Degree Days  
Heating Degree Days 12    
Growing Degree Days 4 (Base 50)    
Moisture  
Dew Point 47 °F    
Average Humidity 87    
Maximum Humidity 100    
Minimum Humidity 60    
Precipitation  
Precipitation 0.00 in - - ()
Sea Level Pressure  
Sea Level Pressure 30.20 in    
Wind  
Wind Speed 1 mph (WSW)    
Max Wind Speed 8 mph    
Max Gust Speed -    
Visibility 5 miles    
Events Rain    
Averages and records for this station are not official NWS values.
T = Trace of Precipitation, MM = Missing Value Source: NWS Daily Summary

Daily Weather History Graph

Daily Weather History Graph

Search for Another Location

Airport or City:

Trip Planner

Search our weather history database for the weather conditions in past years. The results will help you decide how hot, cold, wet, or windy it might be!

Date:

Astronomy

Dec. 03, 2012 Rise Set
Actual Time 7:13 AM EST 4:41 PM EST
Civil Twilight 6:42 AM EST 5:11 PM EST
Nautical Twilight 6:09 AM EST 5:45 PM EST
Astronomical Twilight 5:36 AM EST 6:18 PM EST
Moon 9:26 PM EST (12/3) 10:35 AM EST (12/3)
Length of Visible Light 10h 29m
Length of Day
9h 28m
Waning Gibbous, 78% of the Moon is Illuminated
Dec 3
Waning Gibbous
Dec 6
Last Quarter
Dec 13
New
Dec 20
First Quarter
Dec 28
Full

Hourly Weather History & Observations

Time (EST) Temp. Dew Point Humidity Pressure Visibility Wind Dir Wind Speed Gust Speed Precip Events Conditions
12:56 AM 46.9 °F 45.0 °F 93% 30.16 in 3.0 mi Calm Calm - N/A   Overcast
1:11 AM 46.4 °F 46.4 °F 100% 30.15 in 2.5 mi Calm Calm - N/A   Overcast
1:28 AM 46.4 °F 46.4 °F 100% 30.15 in 3.0 mi Calm Calm - N/A   Overcast
1:54 AM 46.4 °F 44.6 °F 93% 30.15 in 2.5 mi Calm Calm - N/A   Overcast
1:56 AM 46.9 °F 45.0 °F 93% 30.16 in 2.5 mi Calm Calm - N/A   Overcast
2:08 AM 46.4 °F 44.6 °F 93% 30.16 in 3.0 mi Calm Calm - N/A   Overcast
2:56 AM 48.0 °F 46.0 °F 93% 30.17 in 3.0 mi Calm Calm - N/A   Overcast
3:08 AM 46.4 °F 46.4 °F 100% 30.16 in 2.5 mi Calm Calm - N/A   Overcast
3:16 AM 48.2 °F 46.4 °F 93% 30.16 in 3.0 mi Calm Calm - N/A   Overcast
3:44 AM 48.2 °F 46.4 °F 93% 30.16 in 3.0 mi Calm Calm - N/A   Overcast
3:56 AM 48.0 °F 46.0 °F 93% 30.17 in 3.0 mi Calm Calm - N/A   Overcast
4:56 AM 48.0 °F 46.0 °F 93% 30.17 in 3.0 mi North 3.5 mph - N/A   Overcast
5:52 AM 46.4 °F 42.8 °F 87% 30.17 in 2.5 mi Calm Calm - N/A   Clear
5:56 AM 45.0 °F 44.1 °F 97% 30.18 in 2.5 mi Calm Calm - N/A   Clear
6:11 AM 46.4 °F 44.6 °F 93% 30.18 in 3.0 mi Calm Calm - N/A   Clear
6:15 AM 46.4 °F 44.6 °F 93% 30.19 in 1.8 mi Calm Calm - N/A   Clear
6:24 AM 42.8 °F 42.8 °F 100% 30.19 in 1.2 mi Calm Calm - N/A   Clear
6:30 AM 42.8 °F 42.8 °F 100% 30.20 in 2.0 mi Calm Calm - N/A   Clear
6:32 AM 44.6 °F 42.8 °F 93% 30.20 in 1.2 mi Calm Calm - N/A   Clear
6:48 AM 44.6 °F 44.6 °F 100% 30.20 in 2.0 mi Calm Calm - N/A   Clear
6:56 AM 44.1 °F 43.0 °F 96% 30.21 in 3.0 mi Calm Calm - N/A   Clear
7:05 AM 41.0 °F 41.0 °F 100% 30.21 in 3.0 mi Calm Calm - N/A   Partly Cloudy
7:18 AM 41.0 °F 41.0 °F 100% 30.21 in 3.0 mi Calm Calm - N/A   Mostly Cloudy
7:32 AM 42.8 °F 41.0 °F 93% 30.21 in 3.0 mi Calm Calm - N/A   Scattered Clouds
7:56 AM 42.1 °F 42.1 °F 100% 30.24 in 4.0 mi Calm Calm - N/A   Clear
8:56 AM 48.9 °F 45.0 °F 86% 30.25 in 4.0 mi Calm Calm - N/A   Clear
9:27 AM 51.8 °F 46.4 °F 82% 30.25 in 2.5 mi Calm Calm - N/A   Haze
9:56 AM 53.1 °F 46.9 °F 80% 30.25 in 4.0 mi Calm Calm - N/A   Haze
10:56 AM 57.0 °F 48.9 °F 74% 30.24 in 4.0 mi Calm Calm - N/A   Haze
11:56 AM 64.0 °F 52.0 °F 65% 30.22 in 6.0 mi Calm Calm - N/A   Haze
12:56 PM 64.9 °F 52.0 °F 63% 30.20 in 10.0 mi SW 8.1 mph - N/A   Overcast
1:56 PM 64.9 °F 52.0 °F 63% 30.19 in 10.0 mi WSW 6.9 mph - N/A   Overcast
2:56 PM 66.0 °F 52.0 °F 60% 30.19 in 10.0 mi WSW 4.6 mph - N/A   Clear
3:56 PM 64.9 °F 51.1 °F 61% 30.20 in 10.0 mi South 3.5 mph - N/A   Overcast
4:56 PM 61.0 °F 52.0 °F 72% 30.20 in 10.0 mi Calm Calm - N/A   Overcast
5:56 PM 61.0 °F 52.0 °F 72% 30.22 in 10.0 mi Calm Calm - N/A   Overcast
6:56 PM 57.9 °F 51.1 °F 78% 30.23 in 10.0 mi Calm Calm - N/A   Mostly Cloudy
7:56 PM 59.0 °F 51.1 °F 75% 30.23 in 10.0 mi Calm Calm - N/A   Overcast
8:56 PM 55.9 °F 52.0 °F 87% 30.22 in 10.0 mi Calm Calm - 0.00 in   Overcast
9:56 PM 57.9 °F 52.0 °F 81% 30.22 in 10.0 mi East 5.8 mph - N/A   Overcast
10:56 PM 55.9 °F 51.1 °F 84% 30.22 in 9.0 mi Calm Calm - N/A   Overcast
11:56 PM 55.9 °F 52.0 °F 87% 30.23 in 6.0 mi North 4.6 mph - 0.00 in Rain Light Rain